Location: LDNL
(36.4545°S, 141.6685°E)
Time: 09:56:07
(UTC+10:00)

Vanguard 1 - Pass Details

Date: 16 August 2022
Orbit: 649 x 3832 km, 34.2° (Epoch: 27 September)

Event Time Altitude Azimuth Distance (km) Brightness Sun altitude
Rises 19:21:06 0° 264° (W) 3,873 14.8 -16.7°
Reaches altitude 10° 19:24:17 10° 268° (W) 2,588 13.5 -17.4°
Maximum altitude 19:29:43 52° 344° (NNW) 874 9.9 -18.5°
Enters shadow 19:31:54 27° 48° (NE) 1,262 10.2 -18.9°
